TITAN 3C TRANSTAGE DEB, 1883

Orbit data source: Space-Track

TITAN 3C TRANSTAGE DEB, 1883 is space debris in LEO originally from a launch on Fri, 15 Oct 1965 UTC launched from the Air Force Eastern Test Range (AFETR). Debris objects in space refer to the collection of defunct objects orbiting the Earth. Examples of debris include non-operational satellites, rocket bodies, and fragments generated from explosions, collisions, or faulty payload assembly.

Loading next visibility...
Identifier
1883, 1965-082EY
Orbit
LEO
Last TLE update
1 day ago
Origin
Manufacturer
Unknown
Mission
Spacecraft
Bus & Motor
Unknown
Mass
Unknown
Launch date (UTC)
1965-10-15 (60 years ago)
Launch vehicle
Unknown
Launch site
Air Force Eastern Test Range (AFETR)
Object type
Payload
Rocket body
Debris
Shape & HBR
Unknown
Radar Cross Section
Small (<0.1 m²)

Expand to show TLE details & history

TLE from 1 day ago
0 TITAN 3C TRANSTAGE DEB
1 01883U 65082EY  25198.86941345  .00004589  00000-0  21367-3 0  9994
2 01883  32.0926  44.7147 0015139   6.8007 353.2858 15.18430142214359
Epoch: 2025-07-17T20:51Z
TLE epoch observation values (Epoch: 2025-07-17T20:51:57.322Z)
Latitude
0.00005°
Longitude
155.7969°
Altitude
498.842 km
Speed
7.623 km/s
True Right ascension
02h 58m 51s
True Declination
0° 00' 00"
Sunlit
Object was in daylight at epoch
Visualization orbit readout
Latitude
-16.0033°
Longitude
-4.19289°
Altitude
522.726 km
Speed
7.598 km/s
Apparent Right ascension
19h 13m 17s
Apparent Declination
-42° 17' 23"
Sunlit
Object is in full shadow
Visualization observer readout
Local Sidereal Time
11:49:35
Azimuth
116.636° SE
Elevation
-39.376°
Doppler factor
1
Orbital elements
Apogee altitude
524.711 km
Perigee altitude
503.842 km
Semi-major axis
6,892.414 km
Eccentricity
0.00151
Inclination
32.0926°
RAAN
44.7147°
Arg. of periapsis
6.8007°
True anomaly
353.26548°
Mean anomaly
353.2858°
Eccentric anomaly
353.27564°
Mean motion
3.79303 °/min
Orbital period
94.91 mins
BSTAR
0.00021367
Loading maneuver chart data...
Loading SW <> Apogee altitude chart data...
|